Regional Weather Roundup
Issued by NWS

Home | Current Version | Previous Version | Graphics & Text | Print | Product List | Glossary Off
Versions: 1 2 3 4 5 6 7 8 9 10 11 12 13 14 15 16 17 18 19 20 21 22 23 24 25 26 27 28 29 30 31 32 33 34 35 36 37 38 39 40 41 42 43 44 45 46 47 48 49 50

000
ASUS43 KMKX 180400
RWRWI

WISCONSIN REGIONAL WEATHER ROUNDUP
NATIONAL WEATHER SERVICE MILWAUKEE/SULLIVAN WI
1100 PM CDT WED SEP 17 2014

NOTE: "FAIR" INDICATES FEW OR NO CLOUDS BELOW 12,000 FEET WITH NO
SIGNIFICANT WEATHER AND/OR OBSTRUCTIONS TO VISIBILITY.

WIZ001-002-006>008-014>016-023>028-180500-
NORTHWEST WISCONSIN

CITY           SKY/WX    TMP DP  RH WIND       PRES   REMARKS
SUPERIOR ARPT  CLOUDY    45  40  81 E9        30.13R
ASHLAND        CLOUDY    44  38  79 NE9       30.14S
HAYWARD        CLOUDY    46  43  89 NE7       30.11R
SIREN          CLOUDY    48  44  84 NE6       30.09R
RICE LAKE      CLEAR     48  45  87 N8        30.09R
LADYSMITH      CLEAR     47  45  92 N6        30.08S
EAU CLAIRE     NOT AVBL
MENOMONIE      CLEAR     57  53  87 NE8       30.03R
NEW RICHMOND   CLEAR     55  53  94 NE6       30.04R
OSCEOLA        CLEAR     56  54  94 NE9       30.06R
$$

WIZ003>005-009-010-017-018-180500-
NORTH CENTRAL WISCONSIN

CITY           SKY/WX    TMP DP  RH WIND       PRES   REMARKS
WOODRUFF       CLOUDY    47  42  85 NE5       30.10R
RHINELANDER    CLOUDY    47  43  86 E8        30.10R
EAGLE RIVER    CLOUDY    44  39  83 NE7       30.10R
LAND O LAKES   CLOUDY    42  39  90 E6        30.11R
PHILLIPS       CLEAR     46  44  93 NE6       30.08S
TOMAHAWK       PTCLDY    49  45  85 NE6       30.08R
MEDFORD        CLEAR     50  47  90 NE6       30.05R
MERRILL        MOCLDY    52  49  90 NE5       30.07R
$$

WIZ029-030-035-036-043>047-180500-
CENTRAL WISCONSIN

CITY           SKY/WX    TMP DP  RH WIND       PRES   REMARKS
WAUSAU         CLEAR     54  50  86 VRB5      30.05R
MOSINEE        CLEAR     52  52 100 NE9       30.06R
MARSHFIELD     CLEAR     56  51  84 NE8       30.04R
STEVENS POINT  MOCLDY    50  49  94 NE5       30.04R
WAUPACA        CLOUDY    57  55  92 NE8       30.05R
WAUTOMA        NOT AVBL
WISC RAPIDS    CLEAR     50  49  96 CALM      30.04S FOG
CAMP DOUGLAS   NOT AVBL
$$

WIZ011>013-019>022-031-037>040-048>050-180500-
NORTHEAST WISCONSIN

CITY           SKY/WX    TMP DP  RH WIND       PRES   REMARKS
ANTIGO         MOCLDY    49  48  95 E6        30.07R
STURGEON BAY   CLOUDY    48  41  76 NE10G20   30.09R
GREEN BAY      CLOUDY    52  47  83 NE20G26   30.07R
MANITOWOC      NOT AVBL
APPLETON       MOCLDY    52  46  82 NE16      30.06R
CLINTONVILLE   CLOUDY    52  45  76 NE8       30.07R
OSHKOSH        CLOUDY    56  53  90 NE17G24   30.04R
$$

WIZ032>034-041-042-053>061-180500-
SOUTHWEST WISCONSIN

CITY           SKY/WX    TMP DP  RH WIND       PRES   REMARKS
LA CROSSE      CLEAR     56  53  90 SE5       30.02R
SPARTA         CLEAR     47  47  98 CALM      30.04R
VIROQUA        FAIR      52  52  99 CALM      30.04R
BOSCOBEL       FOG       51  49  92 CALM      30.04R VSB 1/2
PRAIRIE DU CHI CLEAR     51  49  92 CALM      30.03R
PLATTEVILLE    FAIR      56  49  78 CALM      30.04S
$$

WIZ056-057-062-063-064-067-068-180500-
SOUTH CENTRAL WISCONSIN

CITY           SKY/WX    TMP DP  RH WIND       PRES   REMARKS
BARABOO/DELLS  CLEAR     52  49  92 CALM      30.03R
LONE ROCK      HAZE      52  46  82 E3        30.03R VSB 3/4
WATERTOWN      CLEAR     48  48  99 CALM      30.02R
MADISON        CLEAR     52  49  89 CALM      30.03R
MIDDLETON      FAIR      50  49  98 CALM      30.04R
MONROE         CLEAR     61  50  67 E3        30.04R
JANESVILLE     CLEAR     52  50  93 CALM      30.03R
$$

WIZ051-052-058>065-066-070>072-180500-
SOUTHEAST WISCONSIN

CITY           SKY/WX    TMP DP  RH WIND       PRES   REMARKS
MILWAUKEE      CLEAR     57  47  69 CALM      30.03R
WAUKESHA       CLEAR     50  46  87 CALM      30.04R
MILWAUKEE/TIMM CLEAR     52  46  82 CALM      30.03S
RACINE         CLEAR     52  47  83 SW3       30.05R
BURLINGTON     FOG       45  44  99 CALM      30.03R VSB 1/2
KENOSHA        CLEAR     50  47  89 CALM      30.04R
FOND DU LAC    CLEAR     50  47  89 CALM      30.03R
SHEBOYGAN      CLEAR     50  48  93 S3        30.02R
WEST BEND      CLEAR     48  45  87 CALM      30.03R
JUNEAU         CLEAR     52  49  89 CALM      30.04R
$$

LSZ147-162-180500-
LAKE SUPERIOR

STATION/POSITION TIME  TEMP    WIND        PRES    WAVE
                       AIR SEA DIR/SP/G            HT/PER
                 (UTC) (F)     (DEG/KT/KT) (MB)    (FT/S)
W MID LAKE BUOY  0250   45 47   70/ 14/ 16 1021.2R   3/ 6
DEVILS ISLAND    0300   46      80/ 19/ 22 1021.5R
PORT WING        0300   45      80/  4/  9 1020.7
SAXON HARBOR     0300   46      80/  5/  8 1020.7R
$$

LMZ867-665-643>646-180500-
LAKE MICHIGAN

STATION/POSITION TIME  TEMP    WIND        PRES    WAVE
                       AIR SEA DIR/SP/G            HT/PER
                 (UTC) (F)     (DEG/KT/KT) (MB)    (FT/S)
N MID LAKE BUOY  0250   50 58   10/ 21/ 25 1017.9R   4/ 4
NORTHPORT PIER   0300   49      20/ 14/ 17 1018.6R
KEWAUNEE LAKESHO 0300   53      20/ 13/ 23 1016.0R
SHEBOYGAN LAKESH 0300   57 51  230/  6/  7 1016.3R
PORT WASHINGTON  0300   54     240/  2/  2 1016.9
ATWATER BUOY     0300   59     200/  8/  8 1017.4R
MILWAUKEE LAKESH 0300   59     210/  4/  5   N/A
S MID LAKE BUOY  0250   62 64  170/  4/  6 1016.7R   0
KENOSHA   LAKESH 0300   59     200/  5/  6 1016.6R
$$

TC  - TEMPERATURE IN CELSIUS
VSB - VISIBILITY IN STATUTE MILES
WCI - WIND CHILL INDEX
HX  - HEAT INDEX




USA.gov is the U.S. government's official web portal to all federal, state and local government web resources and services.